TimeEST,TemperatureF,Dew PointF,Humidity,Sea Level PressureIn,VisibilityMPH,Wind Direction,Wind SpeedMPH,Gust SpeedMPH,PrecipitationIn,Events,Conditions,WindDirDegrees,DateUTC
12:14 AM,62.6,62.6,100,30.00,10.0,Calm,Calm,-,N/A,,Overcast,0,2013-02-23 05:14:00
12:51 AM,62.6,60.8,94,29.99,10.0,Variable,3.5,-,N/A,,Mostly Cloudy,0,2013-02-23 05:51:00
12:56 AM,63.0,62.1,97,29.99,10.0,North,3.5,-,N/A,,Mostly Cloudy,10,2013-02-23 05:56:00
1:56 AM,63.0,62.1,97,29.98,10.0,Calm,Calm,-,N/A,,Overcast,0,2013-02-23 06:56:00
2:56 AM,63.0,62.1,97,29.96,8.0,Calm,Calm,-,N/A,,Overcast,0,2013-02-23 07:56:00
3:25 AM,62.6,62.6,100,29.95,8.0,Calm,Calm,-,N/A,,Mostly Cloudy,0,2013-02-23 08:25:00
3:52 AM,62.6,62.6,100,29.94,6.0,South,3.5,-,N/A,,Mostly Cloudy,170,2013-02-23 08:52:00
3:56 AM,63.0,62.1,97,29.94,6.0,South,3.5,-,N/A,,Mostly Cloudy,170,2013-02-23 08:56:00
4:56 AM,63.0,62.1,97,29.94,6.0,SSW,4.6,-,N/A,,Mostly Cloudy,210,2013-02-23 09:56:00
5:36 AM,64.4,62.6,94,29.94,5.0,SSW,5.8,-,N/A,,Mostly Cloudy,200,2013-02-23 10:36:00
5:38 AM,64.4,64.4,100,29.94,5.0,SSW,5.8,-,N/A,,Mostly Cloudy,200,2013-02-23 10:38:00
5:52 AM,64.4,64.4,100,29.94,7.0,SW,5.8,-,N/A,,Mostly Cloudy,220,2013-02-23 10:52:00
5:56 AM,64.9,64.0,97,29.95,7.0,SW,5.8,-,N/A,,Mostly Cloudy,220,2013-02-23 10:56:00
6:15 AM,64.4,64.4,100,29.95,7.0,SW,4.6,-,N/A,,Overcast,230,2013-02-23 11:15:00
6:56 AM,64.9,64.0,97,29.96,7.0,SW,6.9,-,N/A,,Overcast,220,2013-02-23 11:56:00
7:20 AM,64.4,64.4,100,29.96,7.0,SW,8.1,-,N/A,,Overcast,220,2013-02-23 12:20:00
7:56 AM,66.9,66.0,97,29.97,9.0,SSW,8.1,-,N/A,,Mostly Cloudy,200,2013-02-23 12:56:00
8:56 AM,68.0,66.0,93,29.97,10.0,SSW,15.0,21.9,N/A,,Mostly Cloudy,210,2013-02-23 13:56:00
9:17 AM,68.0,66.2,94,29.96,10.0,SSW,15.0,23.0,N/A,,Mostly Cloudy,200,2013-02-23 14:17:00
9:43 AM,68.0,64.4,88,29.95,10.0,SSW,17.3,24.2,N/A,,Mostly Cloudy,210,2013-02-23 14:43:00
9:56 AM,68.0,64.9,90,29.95,10.0,SSW,12.7,21.9,N/A,,Mostly Cloudy,210,2013-02-23 14:56:00
10:38 AM,69.8,64.4,83,29.95,10.0,SW,19.6,25.3,N/A,,Mostly Cloudy,220,2013-02-23 15:38:00
10:56 AM,70.0,64.9,84,29.95,10.0,SSW,21.9,27.6,N/A,,Mostly Cloudy,210,2013-02-23 15:56:00
11:56 AM,77.2,64.9,66,29.94,10.0,SW,20.7,-,N/A,,Mostly Cloudy,230,2013-02-23 16:56:00
12:56 PM,78.1,64.9,64,29.93,10.0,SW,19.6,27.6,N/A,,Mostly Cloudy,230,2013-02-23 17:56:00
1:56 PM,80.1,62.1,54,29.92,10.0,WSW,17.3,23.0,N/A,,Mostly Cloudy,240,2013-02-23 18:56:00
2:56 PM,81.0,61.0,50,29.89,10.0,West,12.7,-,N/A,,Mostly Cloudy,260,2013-02-23 19:56:00
3:56 PM,81.0,62.1,52,29.86,10.0,WSW,9.2,-,N/A,,Mostly Cloudy,240,2013-02-23 20:56:00
4:56 PM,81.0,60.1,49,29.85,10.0,SSW,8.1,-,N/A,,Mostly Cloudy,210,2013-02-23 21:56:00
5:56 PM,79.0,62.1,56,29.86,10.0,SSW,9.2,-,N/A,,Mostly Cloudy,210,2013-02-23 22:56:00
6:56 PM,77.0,63.0,62,29.88,10.0,SSW,9.2,-,N/A,,Mostly Cloudy,210,2013-02-23 23:56:00
7:56 PM,75.9,64.9,69,29.88,10.0,SW,10.4,-,N/A,,Overcast,220,2013-02-24 00:56:00
8:38 PM,66.2,62.6,88,29.93,7.0,NNW,18.4,27.6,0.00,Rain,Rain,330,2013-02-24 01:38:00
8:46 PM,66.2,64.4,94,29.93,1.0,NNW,13.8,27.6,0.01,Rain-Thunderstorm,Heavy Thunderstorms and Rain,330,2013-02-24 01:46:00
8:56 PM,64.9,63.0,93,29.94,1.5,NNW,13.8,21.9,0.18,Rain-Thunderstorm,Heavy Thunderstorms and Rain,330,2013-02-24 01:56:00
9:15 PM,62.6,60.8,94,29.95,1.5,NW,15.0,-,0.17,Rain-Thunderstorm,Light Thunderstorms and Rain,320,2013-02-24 02:15:00
9:24 PM,62.6,60.8,94,29.94,3.0,NW,10.4,-,0.22,Rain-Thunderstorm,Heavy Thunderstorms and Rain,320,2013-02-24 02:24:00
9:40 PM,62.6,60.8,94,29.95,3.0,NNW,6.9,-,0.29,Rain-Thunderstorm,Thunderstorms and Rain,330,2013-02-24 02:40:00
9:46 PM,62.6,60.8,94,29.96,3.0,WNW,4.6,-,0.30,Rain,Light Rain,290,2013-02-24 02:46:00
9:56 PM,62.1,60.1,93,29.95,10.0,WNW,3.5,-,0.30,,Overcast,300,2013-02-24 02:56:00
10:56 PM,62.1,60.1,93,29.92,10.0,SE,5.8,-,0.03,,Overcast,140,2013-02-24 03:56:00
11:15 PM,62.6,60.8,94,29.94,10.0,Calm,Calm,-,N/A,,Overcast,0,2013-02-24 04:15:00
11:25 PM,62.6,60.8,94,29.94,10.0,Calm,Calm,-,N/A,,Overcast,0,2013-02-24 04:25:00
11:56 PM,62.1,60.1,93,29.91,10.0,ENE,9.2,-,N/A,,Overcast,70,2013-02-24 04:56:00